Left ArrowRight Arrow

Hourly Observations for October 22, 2015

Temp ( °F °C ) Dew Point ( °F °C ) Humidity (%) Winds ( mph kmh ) Pressure ( in mb ) Visibility ( mi km ) Precip ( " mm )
12:53 am 00:53 Mostly Cloudy 82 27.8 67 19.4 60 60 NE 13 20 29.97 1015 10 16 0.00 0.00
1:53 am 01:53 Mostly Clear 81 27.2 67 19.4 62 62 NE 9 15 29.96 1015 10 16 0.00 0.00
2:53 am 02:53 Mostly Clear 80 26.7 67 19.4 64 64 N 10 17 29.94 1014 10 16 0.00 0.00
3:53 am 03:53 Clear 79 26.1 66 18.9 65 65 NNE 10 17 29.92 1013 10 16 0.00 0.00
4:53 am 04:53 Clear 78 25.6 65 18.3 64 64 N 8 13 29.92 1013 10 16 0.00 0.00
5:53 am 05:53 Clear 79 26.1 65 18.3 62 62 NE 7 11 29.93 1014 10 16 0.00 0.00
6:53 am 06:53 Sunny 80 26.7 66 18.9 62 62 ENE 8 13 29.94 1014 10 16 0.00 0.00
7:53 am 07:53 Sunny 84 28.9 68 20 59 59 NW 7 11 29.94 1014 10 16 0.00 0.00
8:53 am 08:53 Sunny 85 29.4 67 19.4 55 55 SSW 7 11 29.95 1014 10 16 0.00 0.00
10:54 am 10:54 Mostly Cloudy 86 30 70 21.1 59 59 SSW 9 15 29.93 1014 10 16 0.00 0.00
11:54 am 11:54 Partly Cloudy 87 30.6 70 21.1 57 57 SSW 13 20 29.92 1013 10 16 0.00 0.00
12:53 pm 12:53 Mostly Sunny 87 30.6 71 21.7 59 59 SSW 10 17 29.89 1012 10 16 0.00 0.00
1:53 pm 13:53 Mostly Sunny 87 30.6 72 22.2 61 61 SSW 12 19 29.87 1012 10 16 0.00 0.00
2:53 pm 14:53 Mostly Cloudy 86 30 71 21.7 61 61 SW 9 15 29.86 1011 10 16 0.00 0.00
3:53 pm 15:53 Partly Cloudy 85 29.4 72 22.2 65 65 SSW 7 11 29.85 1011 10 16 0.00 0.00
5:53 pm 17:53 Mostly Cloudy 83 28.3 72 22.2 70 70 SSW 6 9 29.86 1011 10 16 0.00 0.00
6:53 pm 18:53 Partly Cloudy 83 28.3 72 22.2 70 70 SSW 3 6 29.88 1012 10 16 0.00 0.00
7:53 pm 19:53 Partly Cloudy 82 27.8 71 21.7 69 69 VRB 5 7 29.90 1013 10 16 0.00 0.00
9:53 pm 21:53 Clear 82 27.8 67 19.4 60 60 N 8 13 29.93 1013 10 16 0.00 0.00
10:53 pm 22:53 Clear 81 27.2 72 22.2 74 74 NNW 8 13 29.91 1013 10 16 0.00 0.00
11:53 pm 23:53 Clear 78 25.6 67 19.4 69 69 ENE 6 9 29.90 1012 10 16 0.00 0.00

Powered by Vaisala Xweather